Location: ?????????
(41.2393°N, 22.9479°E)
Time: 22:48:31
(UTC+00:00)

COSMO-SKYMED 1 - Pass Details

Date: 17 November 2025
Orbit: 579 x 581 km, 97.9° (Epoch: 09 December)

Event Time Altitude Azimuth Distance (km) Brightness Sun altitude
Exits shadow 17:21:13 19° 350° (N) 1,412 4.4 -25.1°
Maximum altitude 17:23:48 42° 288° (WNW) 838 3.6 -25.6°
Drops below altitude 10° 17:27:40 10° 218° (SW) 1,889 5.5 -26.3°
Sets 17:29:53 0° 211° (SSW) 2,783 6.4 -26.7°
